TimeEDT,TemperatureF,Dew PointF,Humidity,Sea Level PressureIn,VisibilityMPH,Wind Direction,Wind SpeedMPH,Gust SpeedMPH,PrecipitationIn,Events,Conditions,WindDirDegrees,DateUTC
12:54 AM,48.9,42.1,77,29.88,10.0,Calm,Calm,-,N/A,,Clear,0,2011-10-15 04:54:00
1:54 AM,46.9,42.1,83,29.89,10.0,Calm,Calm,-,N/A,,Clear,0,2011-10-15 05:54:00
2:54 AM,46.0,42.1,86,29.90,10.0,Calm,Calm,-,N/A,,Clear,0,2011-10-15 06:54:00
3:54 AM,45.0,42.1,90,29.90,10.0,Calm,Calm,-,N/A,,Clear,0,2011-10-15 07:54:00
4:54 AM,45.0,42.1,90,29.90,10.0,Calm,Calm,-,N/A,,Clear,0,2011-10-15 08:54:00
5:54 AM,43.0,41.0,93,29.93,10.0,NNW,3.5,-,N/A,,Clear,330,2011-10-15 09:54:00
6:54 AM,43.0,41.0,93,29.95,10.0,Calm,Calm,-,N/A,,Clear,0,2011-10-15 10:54:00
7:54 AM,48.0,39.9,74,29.96,10.0,North,3.5,-,N/A,,Clear,10,2011-10-15 11:54:00
8:54 AM,55.4,39.2,54,30.02,10.0,Calm,Calm,-,N/A,,Clear,0,2011-10-15 12:54:00
9:54 AM,57.9,37.9,47,30.00,10.0,North,8.1,-,N/A,,Clear,350,2011-10-15 13:54:00
10:54 AM,60.1,37.0,42,30.00,10.0,NNW,9.2,-,N/A,,Clear,340,2011-10-15 14:54:00
11:54 AM,63.0,34.0,34,30.00,10.0,North,9.2,-,N/A,,Clear,10,2011-10-15 15:54:00
12:54 PM,66.9,30.0,25,29.99,10.0,North,9.2,-,N/A,,Clear,10,2011-10-15 16:54:00
1:54 PM,68.0,28.9,23,29.97,10.0,North,9.2,-,N/A,,Clear,10,2011-10-15 17:54:00
2:54 PM,70.0,28.9,22,29.95,10.0,North,13.8,18.4,N/A,,Clear,350,2011-10-15 18:54:00
3:54 PM,69.1,25.0,19,29.95,10.0,North,13.8,23.0,N/A,,Clear,360,2011-10-15 19:54:00
4:54 PM,68.0,21.0,17,29.96,10.0,North,13.8,21.9,N/A,,Clear,350,2011-10-15 20:54:00
5:54 PM,64.9,21.9,19,29.99,10.0,NNW,12.7,21.9,N/A,,Clear,340,2011-10-15 21:54:00
6:54 PM,62.1,27.0,26,30.02,10.0,North,9.2,-,N/A,,Clear,360,2011-10-15 22:54:00
7:54 PM,57.0,30.0,36,30.05,10.0,NNW,5.8,-,N/A,,Clear,330,2011-10-15 23:54:00
8:54 PM,54.0,32.0,43,30.05,10.0,Calm,Calm,-,N/A,,Clear,0,2011-10-16 00:54:00
9:54 PM,48.0,35.1,61,30.07,10.0,Calm,Calm,-,N/A,,Clear,0,2011-10-16 01:54:00
10:54 PM,46.0,36.0,68,30.08,10.0,Calm,Calm,-,N/A,,Clear,0,2011-10-16 02:54:00
11:54 PM,43.0,37.0,80,30.10,10.0,NNW,5.8,-,N/A,,Clear,340,2011-10-16 03:54:00